This is the latest recevied weather packets stored in our database for station/object N8BAP. If no packets are shown the sender has not sent any weather packets the latest 10 day(s).
| Time | Temp. | Humidity | Pressure | Rain* | Wind** | Luminosity | Snow |
|---|---|---|---|---|---|---|---|
| 1778114887 | 11.11° C | 65% | 1019 hPa | 0 mm | - | 0 W/m² | - |
| 1778114584 | 11.11° C | 64% | 1019.3 hPa | 0 mm | - | 0 W/m² | - |
| 1778114281 | 11.11° C | 62% | 1019.1 hPa | 0 mm | - | 0 W/m² | - |
| 1778113976 | 11.67° C | 61% | 1018.9 hPa | 0 mm | - | 3 W/m² | - |
| 1778113672 | 11.67° C | 61% | 1018.8 hPa | 0 mm | - | 6 W/m² | - |
| 1778113368 | 12.22° C | 59% | 1018.8 hPa | 0 mm | - | 10 W/m² | - |
| 1778113065 | 12.22° C | 60% | 1018.8 hPa | 0 mm | - | 17 W/m² | - |
| 1778112763 | 12.22° C | 58% | 1018.6 hPa | 0 mm | - | 26 W/m² | - |
| 1778112459 | 12.22° C | 59% | 1018.2 hPa | 0 mm | - | 33 W/m² | - |
| 1778112154 | 12.22° C | 61% | 1018.3 hPa | 0 mm | - | 35 W/m² | - |
| 1778111852 | 12.78° C | 60% | 1018.1 hPa | 0 mm | - | 46 W/m² | - |
| 1778111547 | 12.78° C | 58% | 1018.2 hPa | 0 mm | - | 55 W/m² | - |
| 1778111244 | 12.78° C | 61% | 1018.1 hPa | 0 mm | - | 64 W/m² | - |
| 1778110941 | 12.78° C | 59% | 1017.9 hPa | 0 mm | - | 75 W/m² | - |
| 1778110639 | 12.22° C | 59% | 1018.1 hPa | 0 mm | - | 68 W/m² | - |
| 1778110335 | 12.78° C | 62% | 1017.9 hPa | 0 mm | - | 66 W/m² | - |
| 1778110032 | 12.78° C | 59% | 1017.8 hPa | 0 mm | - | 68 W/m² | - |
| 1778109727 | 12.78° C | 58% | 1017.7 hPa | 0 mm | - | 62 W/m² | - |
| 1778109424 | 12.78° C | 60% | 1017.9 hPa | 0 mm | - | 77 W/m² | - |
| 1778109123 | 12.78° C | 57% | 1018 hPa | 0 mm | - | 65 W/m² | - |
| 1778108819 | 12.78° C | 58% | 1017.9 hPa | 0 mm | - | 55 W/m² | - |
| 1778108516 | 12.78° C | 58% | 1017.9 hPa | 0 mm | - | 92 W/m² | - |
| 1778108213 | 13.33° C | 56% | 1018.2 hPa | 0 mm | - | 88 W/m² | - |
| 1778107909 | 13.33° C | 54% | 1018.2 hPa | 0 mm | - | 127 W/m² | - |
| 1778107606 | 13.33° C | 55% | 1018.1 hPa | 0 mm | - | 121 W/m² | - |
* Rain latest hour (hover to see other rain measurements)
** Current wind speed in m/s (hover to see current wind gust speed)